Pago Pago International (NSTU)

Aerodrome — Elev 32
American Samoa
S014.19.51.600 W170.42.37.800
Loading chart...

Current Weather

NSTU 250250Z VRB06KT 12SM SCT020 29/24 A2981 RMK SLP095 8/100 T02900240 57010

Published 32 minutes ago

Airport Activity

Loading chart...
Loading chart...

Standard ATC Positions

CallsignRadio Name / Freq / Voice Room / TypeFrequencyVoice RoomType
NZZO_FSS Auckland Radio
128.900
nzzo_fss
128.900nzzo_fss
NSFA_APP Faleolo Approach
126.900
nsfa_app
126.900nsfa_app
NSTU_TWR Pago Pago Tower
118.600
nstu_twr
118.600nstu_twr
UNICOM NZZO UNICOM
122.800
unicom_nzzo
122.800unicom_nzzo

Event ATC Positions

This airport has additional control positions that are designated for use only during major events.
These non-standard positions must not be staffed unless specifically activated by the VATNZ Airspace Director as part of an official VATNZ event.
At all other times, controllers should use the designated Standard ATC Positions.

CallsignRadio Name / Freq / Voice Room / TypeFrequencyVoice RoomType
NSFA_CTR Faleolo Control
123.800
nsfa_ctr
123.800nsfa_ctr